Location: Mahannah Oil Field
(37.4664°N, 96.6003°W)
Time: 02:20:01
(UTC+00:00)

Vanguard 2 - Pass Details

Date: 24 June 2021
Orbit: 552 x 2937 km, 32.9° (Epoch: 28 July)

Event Time Altitude Azimuth Distance (km) Brightness Sun altitude
Rises 02:54:58 0° 277° (W) 5,653 13.0 -11.1°
Reaches altitude 10° 02:59:27 10° 273° (W) 4,255 12.1 -11.7°
Maximum altitude 03:09:21 46° 205° (SSW) 1,649 9.0 -13.2°
Enters shadow 03:13:57 19° 140° (SE) 2,198 9.2 -13.8°
